www.pogodaiklimat.ru

Погода и климат >> Архив погоды >> Индия >> Bhagalpur


ПОГОДА в Bhagalpur

  • Прогноз погоды в Bhagalpur
  • Монитор погоды в Bhagalpur
  • Климат города

АРХИВ ПОГОДЫ в Bhagalpur

Время (UTC), дата Ветер
(напр.,м/с)
 
Видим.   Явления Облачность Т
(С)
Тd
(С)
f
(%)
Тe
(С)
Тes
(С)
Комфортность P
(гПа)
Po
(гПа)
Тmin
(С)
Tmax
(С)
R
(мм)
R24
(мм)
S
(см)
03 11.10 В 2 2000 м мгла 10/6 540 м
[Cb calv Ac trans]
+26.4 +25.5 95 +39 +40 очень
душно
1011.6 1012.0 +24.2
06 11.10 ЮВ 1 2000 м слабый дождь 10/4 540 м
[Cb cap As op]
+25.4 +24.8 96 +36 +38 очень
душно
1010.6 1011.0 4
09 11.10 В 1 2000 м слабый дождь {морось} 10/8 540 м
[Cb cap As op]
+25.0 +24.4 96 +35 +35 очень
душно
1008.3 1008.0 7
12 11.10 В 2 2000 м слабый дождь {морось} 10/8 540 м
[Cb cap As op]
+23.0 +22.4 96 +31 +31 очень
душно
1009.6 1010.0 +27.0 11
15 11.10 В 1 2000 м слабая морось {дождь} 10/8 540 м
[Cb cap As op]
+22.4 +21.8 96 +30 +30 очень
душно
1011.3 1011.0 16
18 11.10 В 1 2000 м сильный дождь {морось} 10/8 450 м
[Cb cap As op]
+23.2 +23.2 100 +33 +33 очень
душно
1012.7 1013.0 55
21 11.10 В 1 2000 м слабая морось {дождь} 10/6 450 м
[Cb calv As op]
+23.0 +23.0 100 +32 +32 очень
душно
1011.9 1012.0 63
00 12.10 В 2 2000 м мгла 10/6 450 м
[Cb calv As op]
+22.8 +22.8 100 +31 +31 очень
душно
1011.7 1012.0 69
03 12.10 В 2 2000 м мгла 10/6 540 м
[Cb calv As op]
+24.0 +23.4 96 +32 +33 очень
душно
1013.0 1013.0 +21.7 69
06 12.10 ЮВ 1 2000 м мгла 10/8 540 м
[Cb calv As op]
+25.0 +23.5 91 +34 +34 очень
душно
1002.8 1003.0
09 12.10 В 1 2000 м мгла 10/8 540 м
[Cb calv As op]
+25.2 +23.7 91 +34 +35 очень
душно
1010.5 1011.0
12 12.10 В 1 2000 м мгла 9/6 540 м
[Sc Ac As]
+25.2 +24.0 93 +35 +35 очень
душно
1010.0 1010.0 +26.2
15 12.10 В 1 2000 м мгла 10/8 540 м
[Cb calv As op]
+24.4 +23.8 96 +33 +33 очень
душно
1010.6 1011.0
18 12.10 СВ 1 2000 м мгла 9/8 540 м
[Cb calv Ac As]
+24.2 +23.6 96 +33 +33 очень
душно
1011.6 1012.0
21 12.10 СВ 1 2000 м мгла 9/8 540 м
[Cb calv Ac As]
+23.8 +23.2 96 +32 +32 очень
душно
1010.8 1011.0
00 13.10 штиль 0 2000 м мгла 10/8 540 м
[Cb calv As op]
+24.0 +23.1 95 +32 +32 очень
душно
1010.4 1010.0
03 13.10 штиль 0 2000 м мгла 8/6 540 м
[Sc diur, vesp Ac trans]
+25.2 +23.4 90 +34 +36 очень
душно
1012.0 1012.0 +22.5
06 13.10 штиль 0 2000 м мгла 9/6 540 м
[Sc diur, vesp Ac trans]
+28.6 +23.7 75 +39 +44 очень
душно
1012.8 1013.0
09 13.10 штиль 0 2000 м мгла 6/4 600 м
[Sc Ac trans]
+31.6 +24.8 67 +45 +50 опасность
перегрева
1010.5 1011.0
12 13.10 штиль 0 2000 м мгла 3/0
[Ac trans]
+29.0 +25.0 79 +42 +42 опасность
перегрева
1009.5 1010.0 +32.2
15 13.10 штиль 0 2000 м мгла ясно +25.6 +24.1 91 +35 +35 очень
душно
1011.0 1011.0
18 13.10 штиль 0 2000 м мгла ясно +25.0 +23.5 91 +34 +34 очень
душно
1010.4 1010.0
21 13.10 штиль 0 2000 м мгла ясно +23.6 +23.2 98 +32 +32 очень
душно
1009.4 1009.0
00 14.10 штиль 0 2000 м мгла ясно +23.6 +22.7 95 +31 +31 очень
душно
1010.1 1010.0
03 14.10 З 1 2000 м мгла 3/0
[Ac trans]
+26.0 +23.1 84 +35 +40 очень
душно
1012.0 1012.0 +22.0
06 14.10 штиль 0 2000 м мгла 3/0
[Ac trans]
+31.4 +24.3 66 +44 +60 опасность
перегрева
1012.1 1012.0
09 14.10 З 1 2000 м мгла 3/1 600 м
[Sc Ac trans]
+32.2 +23.9 62 +44 +51 опасность
перегрева
1009.8 1010.0
12 14.10 штиль 0 2000 м мгла 3/0
[Ac trans]
+29.6 +24.8 75 +42 +42 опасность
перегрева
1009.8 1010.0 +32.7
15 14.10 штиль 0 2000 м мгла ясно +26.4 +23.8 86 +36 +36 очень
душно
1011.1 1011.0
18 14.10 штиль 0 2000 м мгла ясно +25.4 +23.3 88 +34 +34 очень
душно
1011.4 1011.0
21 14.10 штиль 0 2000 м мгла ясно +24.6 +23.1 91 +33 +33 очень
душно
1005.2 1005.0
00 15.10 штиль 0 2000 м мгла ясно +22.6 +21.1 91 +30 +30 очень
душно
1011.9 1012.0
03 15.10 штиль 0 2000 м мгла ясно +24.0 +20.6 81 +30 +38 очень
душно
1014.6 1015.0 +20.5
06 15.10 СЗ 1 2000 м мгла ясно +31.4 +21.0 54 +39 +57 опасность
солнечного
удара
1013.3 1013.0
09 15.10 СЗ 1 2000 м мгла 3/3 600 м
[Sc]
+32.2 +20.5 50 +39 +46 очень
душно
1011.0 1011.0
12 15.10 штиль 0 2000 м мгла ясно +28.0 +22.4 72 +37 +37 очень
душно
1010.7 1011.0 +32.5
15 15.10 З 1 2000 м мгла ясно +24.0 +20.6 81 +30 +30 очень
душно
1012.6 1013.0
18 15.10 штиль 0 2000 м мгла ясно +23.4 +20.3 83 +31 +31 очень
душно
1013.4 1013.0
21 15.10 штиль 0 2000 м мгла ясно +22.8 +20.0 84 +29 +29 очень
душно
1012.7 1013.0
00 16.10 штиль 0 2000 м мгла ясно +21.6 +20.1 91 +27 +27 душно 1012.1 1012.0
03 16.10 штиль 0 2000 м мгла ясно +23.2 +19.1 78 +30 +37 очень
душно
1014.9 1015.0 +20.1
06 16.10 штиль 0 4000 м мгла ясно +32.0 +22.4 57 +41 +61 опасность
перегрева
1013.4 1013.0
09 16.10 штиль 0 4000 м мгла ясно +32.4 +22.5 56 +42 +52 опасность
перегрева
1011.8 1012.0
12 16.10 штиль 0 2000 м мгла ясно +28.4 +22.8 72 +38 +38 очень
душно
1010.7 1011.0 +33.5
15 16.10 штиль 0 2000 м мгла ясно +25.2 +21.6 80 +32 +32 очень
душно
1012.9 1013.0
18 16.10 Ю 1 2000 м мгла ясно +23.8 +21.1 85 +30 +30 очень
душно
1012.4 1012.0
21 16.10 Ю 1 2000 м мгла ясно +22.8 +20.7 88 +30 +30 очень
душно
1011.4 1011.0
00 17.10 штиль 0 2000 м мгла ясно +21.8 +20.6 93 +28 +28 душно 1011.5 1012.0
03 17.10 штиль 0 2000 м мгла ясно +23.4 +20.3 83 +31 +39 очень
душно
1013.2 1013.0 +20.0
06 17.10 штиль 0 2000 м мгла ясно +31.4 +22.0 57 +40 +59 опасность
солнечного
удара
1012.7 1013.0
09 17.10 штиль 0 2000 м мгла ясно +33.4 +22.0 51 +42 +52 опасность
перегрева
1009.2 1009.0
12 17.10 штиль 0 2000 м мгла 3/0
[Ac trans]
+28.6 +23.4 73 +39 +39 очень
душно
1008.7 1009.0 +34.0
15 17.10 штиль 0 2000 м мгла ясно +25.4 +22.1 82 +33 +33 очень
душно
1010.1 1010.0
18 17.10 Ю 1 2000 м мгла ясно +24.4 +22.3 88 +32 +32 очень
душно
1009.1 1009.0
21 17.10 Ю 1 2000 м мгла ясно +23.2 +22.0 93 +32 +32 очень
душно
1008.0 1008.0

 

Местоположение метеостанции Bhagalpur (Bihar, Индия): широта 25.23 долгота 86.95 высота над уровнем моря 49 м.

В архиве по умолчанию представлена погода в Bhagalpur за последнюю неделю. Архивные данные за месяц целиком и за предыдущие месяцы, начиная с января 2011 года, Вы можете получить, выбрав интересующий диапазон дат из раскрывающегося списка и нажав кнопку "Ввод!".


*Определитесь, кто Вы:
робот инопланетянин человек

Внимание! Время в таблицах - всемирное. Для получения местного времени необходимо прибавить поправку, которая в Bhagalpur равна 5.5 ч.

Смотрите также архив погоды в соседних городах и на ближайших метеорологических станциях:

Погода в Purnea (Bihar, Индия) (53 км)
Погода в Malda (West Bengal, Индия) (121 км)
Погода в Biratnagar (Непал) (142 км)
Погода в Badalgachhi (Бангладеш) (156 км)
Погода в Asansol (West Bengal, Индия) (172 км)
Погода в Dinajpur (Бангладеш) (180 км)
Погода в Baharampur (West Bengal, Индия) (181 км)
Погода в Balurghat (West Bengal, Индия) (184 км)
Погода в Dimla (Бангладеш) (187 км)
Погода в Patna (Bihar, Индия) (190 км)

Пояснения к столбцам:

Ветер - указаны скорость ветра в м/с - средняя за 10 мин, порывы в срок и между сроками (в фигурных скобках) и направление, откуда дует ветер: С - северный, СВ - северо-восточный, В - восточный, ЮВ - юго-восточный, Ю - южный, ЮЗ - юго-западный, З - западный, СЗ - северо-западный.
Видимость - горизонтальная дальность видимости в метрах или километрах. При видимости от 1 до 10 км при отсутствии осадков обычно наблюдается дымка, при ухудшении видимости до 1 км и менее - туман. В сухую погоду видимость может ухудшаться дымом, пылью или мглою.
Явления - указаны атмосферные явления, наблюдавшиеся в срок или в последний час перед сроком; фигурными скобками обозначены явления, наблюдавшиеся между сроками (за 1-3 часа до срока); квадратными скобками обозначены град или гололедные отложения с указанием их диаметра в мм.
Облачность - указаны через наклонную черту общая и нижняя облачность в баллах и высота нижней границы облаков в метрах; квадратными скобками обозначены формы облаков: Ci - перистые, Cs - перисто-слоистые, Cc - перисто-кучевые, Ac - высококучевые, As - высокослоистые, Sc - слоисто-кучевые, Ns - слоисто-дождевые, Cu - кучевые, Cb - кучево-дождевые. Подробнее классификацию облаков см. в Атласе облаков (PDF).
T - Температура воздуха - температура, измеренная на высоте 2 м над землей.
Td - Температура точки росы - температура, при понижении до которой содержащийся в воздухе водяной пар достигнет насыщения.
f - Относительная влажность воздуха - влажноcть воздуха, измеренная на высоте 2 м над землей.
Te - Эффективная температура - температура, которую ощущает одетый по сезону человек в тени. Характеристика душности погоды. При расчете учитывается влияние влажности воздуха и скорости ветра на теплоощущения человека.
Tes - Эффективная температура на солнце - температура, которую ощущает человек, с поправкой на солнечный нагрев. Характеристика знойности погоды. Зависит от высоты солнца над горизонтом, облачности и скорости ветра. Ночью, в пасмурную погоду, а также при ветре 12 м/с и более поправка равна нулю.
P - Атмосферное давление - приведенное к уровню моря атмосферное давление.
Po - Атмосферное давление - измеренное на уровне метеостанции атмосферное давление.
Tmin - Минимальная температура - минимум температуры воздуха на высоте 2 м над землей.
Tmax - Максимальная температура - максимум температуры воздуха на высоте 2 м над землей.
R - Количество осадков - Количество выпавших осадков за период времени, мм. При наведении курсора мыши на число - период времени, за который выпало указанное количество осадков.
R24 - Количество осадков - Количество выпавших осадков за 24 часа, мм.
S - Снежный покров - Высота снежного покрова, см. При наведении курсора мыши на число - состояние снежного покрова и степень покрытия местности в баллах.